User: anonymous
Location: Oshawa
(43.9000°N, 78.8670°W)
Time: 04:46:57
(UTC-04:00)
Language:

Iridium 46 - Orbit

View from above orbital plane
View from above orbital plane
View from above satellite
View from above satellite

Ground track
Ground track

The orbit data is extracted from the following two-line orbital elements,

1 24905U 97043C   14292.48755112  .00000297  00000-0  99128-4 0   479
2 24905 086.3932 302.0785 0002200 105.5487 254.5952 14.34219264898555
Epoch (UTC): 19 October 2014 11:42:04
Eccentricity: 0.0002200
inclination: 86.3932°
perigee height: 776 km
apogee height: 779 km
right ascension of ascending node: 302.0785°
argument of perigee: 105.5487°
revolutions per day: 14.34219264
mean anomaly at epoch: 254.5952°
orbit number at epoch: 89855

The dashed part of the orbit path shows where the satellite is in the earth's shadow,  

DLR